Regional Weather Roundup
Issued by NWS

Home | Current Version | Previous Version | Text Only | Print | Product List | Glossary On
Versions: 1 2 3 4 5 6 7 8 9 10 11 12 13 14 15 16 17 18 19 20 21 22 23 24 25 26 27 28 29 30 31 32 33 34 35 36 37 38 39 40 41 42 43 44 45 46 47 48 49 50
000
ASUS43 KMKX 180721
RWRWI

WISCONSIN REGIONAL WEATHER ROUNDUP
NATIONAL WEATHER SERVICE MILWAUKEE/SULLIVAN WI
100 AM CST THU DEC 18 2014

NOTE: "FAIR" INDICATES FEW OR NO CLOUDS BELOW 12,000 FEET WITH NO
SIGNIFICANT WEATHER AND/OR OBSTRUCTIONS TO VISIBILITY.

WIZ001-002-006>008-014>016-023>028-180800-
NORTHWEST WISCONSIN

CITY           SKY/WX    TMP DP  RH WIND       PRES   REMARKS
SUPERIOR ARPT  CLOUDY    19  17  89 SW5       30.34S WCI  13
ASHLAND        CLOUDY    24  21  88 CALM      30.31R
HAYWARD        CLOUDY    19  14  81 CALM      30.30R
SIREN          FLURRIES  17  14  88 NW3       30.32F
CUMBERLAND     CLOUDY    19  14  79 N3        30.28F
RICE LAKE      CLOUDY    20  16  82 NW5       30.31F WCI  14
CHETEK         CLOUDY    20  15  84 N3        30.29F
LADYSMITH      CLOUDY    21  18  86 NW6       30.29F WCI  14
EAU CLAIRE     CLOUDY    20  14  77 CALM      30.31R
MENOMONIE      CLOUDY    20  15  81 CALM      30.32R
NEW RICHMOND   CLOUDY    17  14  88 CALM      30.32R
OSCEOLA        CLOUDY    17  14  90 CALM      30.36R
$$

WIZ003>005-009-010-017-018-180800-
NORTH CENTRAL WISCONSIN

CITY           SKY/WX    TMP DP  RH WIND       PRES   REMARKS
MANITOWISH WTR CLOUDY    21  20  97 NE5       30.23S WCI  14
ARBOR VITAE    CLOUDY    23  20  89 CALM      30.23S
WOODRUFF       CLOUDY    23  20  89 CALM      30.23S
RHINELANDER    CLOUDY    21  18  88 NE3       30.23R
EAGLE RIVER    CLOUDY    21  20  93 NE7       30.22S WCI  13
LAND O LAKES   CLOUDY    21  19  93 NE7       30.23S WCI  13
PHILLIPS       CLOUDY    20  17  88 E3        30.26R
TOMAHAWK       CLOUDY    21  18  88 CALM      30.25R
MEDFORD        CLOUDY    21  19  90 NW3       30.24F
MERRILL        CLOUDY    23  20  88 N3        30.25S
$$

WIZ029-030-035-036-043>047-180800-
CENTRAL WISCONSIN

CITY           SKY/WX    TMP DP  RH WIND       PRES   REMARKS
WAUSAU         CLOUDY    24  18  77 N5        30.25R WCI  18
MOSINEE        CLOUDY    23  23 100 NW5       30.26S WCI  17
MARSHFIELD     CLOUDY    20  15  81 NW8       30.26R WCI  10
STEVENS POINT  CLOUDY    20  16  84 W5        30.27R WCI  14
WAUPACA        CLOUDY    24  18  75 W7        30.28R WCI  16
WAUTOMA        CLOUDY    22  15  74 NW5       30.29R WCI  16
WISC RAPIDS    CLOUDY    20  13  74 NW5       30.29R WCI  13
CAMP DOUGLAS   CLOUDY    20  18  94 NW5       30.29F WCI  13
$$

WIZ011>013-019>022-031-037>040-048>050-180800-
NORTHEAST WISCONSIN

CITY           SKY/WX    TMP DP  RH WIND       PRES   REMARKS
ANTIGO         CLOUDY    22  19  91 N6        30.22S WCI  14
SHAWANO        CLOUDY    28  22  78 W3        30.26S
OCONTO         CLOUDY    27  23  86 NW5       30.25S WCI  22
STURGEON BAY   CLOUDY    28  21  74 N9        30.25R WCI  20
GREEN BAY      CLOUDY    27  21  78 NW7       30.26R WCI  19
MANITOWOC      CLOUDY    25  21  85 W9        30.26R WCI  15
APPLETON       CLOUDY    23  19  86 W9        30.27R WCI  13
CLINTONVILLE   CLOUDY    27  21  80 W5        30.26S WCI  21
OSHKOSH        CLOUDY    22  16  78 W7        30.27R WCI  13
$$

WIZ032>034-041-042-053>061-180800-
SOUTHWEST WISCONSIN

CITY           SKY/WX    TMP DP  RH WIND       PRES   REMARKS
LA CROSSE      CLOUDY    19  13  77 NW5       30.32F WCI  12
SPARTA         CLOUDY    20  13  76 CALM      30.30F
VIROQUA        MOCLDY    15  13  93 CALM      30.26F
BOSCOBEL       CLEAR     14  11  87 CALM      30.32F
PRAIRIE DU CHI CLEAR     17  13  86 CALM      30.31F
PLATTEVILLE    CLEAR     16  14  91 CALM      30.28F
$$

WIZ056-057-062-063-064-067-068-180800-
SOUTH CENTRAL WISCONSIN

CITY           SKY/WX    TMP DP  RH WIND       PRES   REMARKS
REEDSBURG      CLOUDY    18  14  84 CALM      30.28F
BARABOO/DELLS  CLOUDY    19  14  83 NW3       30.28S
LONE ROCK      CLEAR     21  13  71 W3        30.31F
MINERAL POINT  CLEAR     19  14  79 N3        30.26F
MADISON        CLEAR     17  13  84 CALM      30.28F
MIDDLETON      CLEAR     18  13  82 W3        30.28F
WATERTOWN      CLEAR     17  15  89 W3        30.27S
MONROE         CLOUDY    21  18  86 N5        30.26F WCI  15
JANESVILLE     PTCLDY    19  16  86 CALM      30.28F
$$

WIZ051-052-058>065-066-070>072-180800-
SOUTHEAST WISCONSIN

CITY           SKY/WX    TMP DP  RH WIND       PRES   REMARKS
MILWAUKEE      CLEAR     21  13  71 NW9       30.26F WCI  11
WAUKESHA       CLEAR     18  14  86 W6        30.27S WCI   9
MILWAUKEE/TIMM CLEAR     19  14  79 W6        30.27S WCI  11
RACINE         CLEAR     19  13  77 W6        30.29R WCI  11
BURLINGTON     CLEAR     17  13  85 W3        30.27F
KENOSHA        CLEAR     19  14  81 W7        30.27F WCI  10
FOND DU LAC    CLOUDY    22  15  75 CALM      30.27S
SHEBOYGAN      CLOUDY    23  17  78 W9        30.26R WCI  13
WEST BEND      MOCLDY    21  16  79 NW6       30.25F WCI  14
JUNEAU         CLOUDY    20  15  82 NW5       30.27F WCI  13
$$

LSZ147-162-180800-
LAKE SUPERIOR

STATION/POSITION TIME  TEMP    WIND        PRES    WAVE
                       AIR SEA DIR/SP/G            HT/PER
                 (UTC) (F)     (DEG/KT/KT) (MB)    (FT/S)
DEVILS ISLAND    0700   26      90/  8/ 10 1027.9R
PORT WING        0640   24     110/  2/  4 1027.1R
SAXON HARBOR     0600   25        CALM     1026.1R
$$

LMZ867-665-643>646-180800-
LAKE MICHIGAN

STATION/POSITION TIME  TEMP    WIND        PRES    WAVE
                       AIR SEA DIR/SP/G            HT/PER
                 (UTC) (F)     (DEG/KT/KT) (MB)    (FT/S)
CHAMBERS ISLAND  0600   29     330/ 17/ 20 1023.4R
NORTHPORT PIER   0600   29     340/ 17/ 22 1022.7R
SISTER BAY       0613          360/ 18/ 23   N/A
ALGOMA LAKESHORE 0629          340/  8/ 12   N/A
KEWAUNEE LAKESHO 0700   27     310/  4/  8 1023.2R
SHEBOYGAN LAKESH 0700   24 34  280/ 11/ 14 1026.1R
PORT WASHINGTON  0600   22     300/  8/ 10 1025.4
MILWAUKEE LAKESH 0700   21     300/  9/ 12   N/A
KENOSHA   LAKESH 0700   21     270/ 10/ 13 1025.1F
$$

TC  - TEMPERATURE IN CELSIUS
VSB - VISIBILITY IN STATUTE MILES
WCI - WIND CHILL INDEX
HX  - HEAT INDEX



USA.gov is the U.S. government's official web portal to all federal, state and local government web resources and services.